Estación de Purranque

Ultimos registro cada 15 minutos 30
Estación Fecha / Hora Temperatura Humedad Lluvia Velocidad Dirección Radiación Presion
30 Purranque 07-05-2026 07:15 3,4 96,8 0 0,7 298 0,6 1013,5
29 Purranque 07-05-2026 07:00 3,1 96,1 0 0,7 291 0,6 1013,6
28 Purranque 07-05-2026 06:45 3,6 94,7 0 0,7 329 0,6 1013,4
27 Purranque 07-05-2026 06:30 5,1 94,8 0 0,3 310 0,6 1013,2
26 Purranque 07-05-2026 06:15 5,5 94,2 0 0,7 292 0,6 1013,1
25 Purranque 07-05-2026 06:00 5,4 95,1 0 0,7 292 0,6 1013,5
24 Purranque 07-05-2026 05:45 5,6 93,9 0 0,7 291 0,6 1013,5
23 Purranque 07-05-2026 05:30 5,9 92,9 0 1,3 285 0,6 1013,2
22 Purranque 07-05-2026 05:15 5,5 94 0 0,7 281 0,6 1013,4
21 Purranque 07-05-2026 05:00 5,5 92,6 0 0,3 306 0,6 1013,1
20 Purranque 07-05-2026 04:45 5,4 93,1 0 0,7 295 0,6 1013
19 Purranque 07-05-2026 04:30 5,2 92,6 0 0,7 288 0,6 1012,9
18 Purranque 07-05-2026 04:15 5,2 92,2 0 0,7 270 0,6 1012,6
17 Purranque 07-05-2026 04:00 4,7 92,2 0 0,3 237 0,6 1012,5
16 Purranque 07-05-2026 03:45 5,4 90,8 0 0,7 275 0,6 1012,3
15 Purranque 07-05-2026 03:30 5,3 91,1 0 0,7 284 0,6 1012,3
14 Purranque 07-05-2026 03:15 4,9 89,3 0 1 274 0,6 1012,4
13 Purranque 07-05-2026 03:00 4,5 89,5 0 0,3 271 0,6 1012,3
12 Purranque 07-05-2026 02:45 5,4 88,9 0 0,7 275 0,6 1012,2
11 Purranque 07-05-2026 02:30 5,9 88,2 0 0,7 268 0,6 1012,1
10 Purranque 07-05-2026 02:15 6,5 86,7 0 0,7 268 0,6 1011,9
9 Purranque 07-05-2026 02:00 7,3 84,8 0 1 264 0,6 1011,7
8 Purranque 07-05-2026 01:45 7,3 85,8 0 1 247 0,6 1011,4
7 Purranque 07-05-2026 01:30 7,4 87,5 0 1 254 0,6 1011,3
6 Purranque 07-05-2026 01:15 7,3 89,3 0 1 241 0,6 1011,2
5 Purranque 07-05-2026 01:00 7,6 88,6 0 1,3 230 0,6 1011
4 Purranque 07-05-2026 00:45 7,7 88,2 0 1 241 0,6 1010,7
3 Purranque 07-05-2026 00:30 8 88 0 1,3 256 0,6 1010,7
2 Purranque 07-05-2026 00:15 8,1 88,5 0 1,3 260 0,6 1010,7
1 Purranque 07-05-2026 00:00 7,9 90,1 0 0,7 257 0,6 1010,6